EW4304 Weather Reports


time (UTC)temp
C
wind
direction
speed
KPH
gust
KPH
rain 1hr
cm
rain 24hr
cm
rain mn
cm
humidity
%
barometer
mb
20260902231541 31 198 0.0 6.4 0.00 0.00 0.00 62 1013.7
20260902230040 32 161 4.8 9.7 0.00 0.00 0.00 60 1013.8
20260902224548 32 202 4.8 11.3 0.00 0.00 0.00 58 1013.9
20260902223052 33 175 4.8 11.3 0.00 0.00 0.00 57 1013.9
20260902221540 33 234 1.6 14.5 0.00 0.00 0.00 57 1013.9
20260902220041 33 225 4.8 12.9 0.00 0.00 0.00 56 1014.1
20260902214536 33 157 3.2 11.3 0.00 0.00 0.00 55 1014.0
20260902213036 33 179 6.4 14.5 0.00 0.00 0.00 54 1014.1
20260902211533 35 171 4.8 11.3 0.00 0.00 0.00 54 1014.2
20260902210031 34 156 3.2 9.7 0.00 0.00 0.00 54 1014.3
20260902204541 33 188 6.4 14.5 0.00 0.00 0.00 54 1014.4
20260902203028 34 223 1.6 12.9 0.00 0.00 0.00 54 1014.4
20260902201528 34 170 3.2 14.5 0.00 0.00 0.00 55 1014.6
20260902200025 34 318 3.2 12.9 0.00 0.00 0.00 54 1014.7
20260902194526 34 157 6.4 12.9 0.00 0.00 0.00 54 1014.8
20260902193022 35 300 3.2 8.0 0.00 0.00 0.00 53 1015.0
20260902191520 34 199 6.4 14.5 0.00 0.00 0.00 53 1015.1
20260902190018 34 258 4.8 14.5 0.00 0.00 0.00 53 1015.2
20260902184519 33 299 6.4 16.1 0.00 0.00 0.00 55 1015.4
20260902183033 33 200 6.4 14.5 0.00 0.00 0.00 54 1015.4
20260902181513 33 269 6.4 12.9 0.00 0.00 0.00 54 1015.6
20260902180011 33 266 8.0 17.7 0.00 0.00 0.00 56 1015.6
20260902174612 33 204 6.4 14.5 0.00 0.00 0.00 55 1015.8
20260902173016 32 288 1.6 19.3 0.00 0.00 0.00 58 1016.1
20260902171509 32 167 9.7 19.3 0.00 0.00 0.00 57 1016.3
20260902170007 32 250 0.0 14.5 0.00 0.00 0.00 59 1016.4
20260902164505 33 326 6.4 12.9 0.00 0.00 0.00 58 1016.3
20260902163004 32 283 6.4 12.9 0.00 0.00 0.00 60 1016.4
20260902161502 32 308 3.2 9.7 0.00 0.00 0.00 61 1016.4
20260902160058 32 273 1.6 14.5 0.00 0.00 0.00 63 1016.5
20260902154556 31 209 1.6 9.7 0.00 0.00 0.00 65 1016.5
20260902153105 31 216 6.4 12.9 0.00 0.00 0.00 66 1016.5
20260902151552 31 261 3.2 9.7 0.00 0.00 0.00 66 1016.6
20260902150049 30 262 3.2 12.9 0.00 0.00 0.00 68 1016.8
20260902144546 30 155 4.8 9.7 0.00 0.00 0.00 69 1016.7
20260902143047 29 306 4.8 12.9 0.00 0.00 0.00 71 1016.8
20260902141542 28 122 1.6 12.9 0.00 0.00 0.00 74 1016.7
20260902140037 28 286 3.2 11.3 0.00 0.00 0.00 75 1016.7
20260902134532 27 276 4.8 11.3 0.00 0.00 0.00 77 1016.6
20260902133029 26 298 0.0 4.8 0.00 0.00 0.00 83 1016.6
20260902131524 25 157 0.0 6.4 0.00 0.00 0.00 86 1016.7
20260902130020 24 154 0.0 3.2 0.00 0.00 0.00 88 1016.8
20260902124520 23 186 0.0 4.8 0.00 0.00 0.00 89 1016.7
20260902123019 23 173 0.0 4.8 0.00 0.00 0.00 90 1016.7
20260902121517 22 152 0.0 1.6 0.00 0.00 0.00 90 1016.6
20260902120018 22 180 0.0 3.2 0.00 0.00 0.00 90 1016.5
20260902114515 22 180 0.0 3.2 0.00 0.00 0.00 90 1016.4
20260902113013 22 180 0.0 1.6 0.00 0.00 0.00 90 1016.1
20260902111513 22 180 0.0 4.8 0.00 0.00 0.00 90 1016.1
20260902110033 22 203 0.0 3.2 0.00 0.00 0.00 89 1016.0
20260902104520 22 177 0.0 0.0 0.00 0.00 0.00 90 1015.9
20260902103019 21 177 0.0 3.2 0.00 0.00 0.00 89 1015.9
20260902101509 21 177 0.0 1.6 0.00 0.00 0.00 89 1015.8
20260902100012 21 177 0.0 0.0 0.00 0.00 0.00 90 1016.0
20260902094508 21 177 0.0 0.0 0.00 0.00 0.00 90 1015.8
20260902093007 21 177 0.0 0.0 0.00 0.00 0.00 90 1015.7
20260902091506 21 177 0.0 0.0 0.00 0.00 0.00 90 1015.7
20260902090017 21 177 0.0 0.0 0.00 0.00 0.00 90 1015.8
20260902084503 21 177 0.0 0.0 0.00 0.00 0.00 90 1015.5
20260902083001 22 177 0.0 0.0 0.00 0.00 0.00 90 1015.3
20260902081600 22 177 0.0 0.0 0.00 0.00 0.00 90 1015.3
20260902074559 22 177 0.0 0.0 0.00 0.00 0.00 90 1015.3
20260902073058 22 177 0.0 0.0 0.00 0.00 0.00 90 1015.2
20260902071557 22 177 0.0 0.0 0.00 0.00 0.00 90 1015.2
20260902070054 22 177 0.0 0.0 0.00 0.00 0.00 90 1015.1
20260902064602 22 177 0.0 0.0 0.00 0.00 0.00 90 1015.2
20260902063107 22 177 0.0 0.0 0.00 0.00 0.00 90 1015.1
20260902061609 22 177 0.0 0.0 0.00 0.00 0.00 89 1015.2
20260902060051 23 177 0.0 0.0 0.00 0.00 0.00 89 1015.3
20260902054547 23 177 0.0 0.0 0.00 0.00 0.00 89 1015.3
20260902053146 23 177 0.0 0.0 0.00 0.00 0.00 89 1015.2
20260902051557 23 177 0.0 0.0 0.00 0.00 0.00 89 1015.2
20260902050043 23 177 0.0 0.0 0.00 0.00 0.00 89 1015.1
20260902044603 23 177 0.0 0.0 0.00 0.00 0.00 89 1015.2
20260902043046 23 177 0.0 0.0 0.00 0.00 0.00 88 1015.2
20260902041544 24 177 0.0 0.0 0.00 0.00 0.00 88 1015.3
20260902040036 24 177 0.0 0.0 0.00 0.00 0.00 87 1015.3
20260902034536 24 177 0.0 0.0 0.00 0.00 0.00 87 1015.2
20260902033036 25 177 0.0 0.0 0.00 0.00 0.00 86 1015.2
20260902031552 25 177 0.0 0.0 0.00 0.00 0.00 86 1015.2
20260902030035 25 177 0.0 0.0 0.00 0.00 0.00 86 1015.3
20260902024542 25 177 0.0 1.6 0.00 0.00 0.00 85 1015.2
20260902023034 25 177 0.0 0.0 0.00 0.00 0.00 85 1015.1
20260902021534 25 177 0.0 0.0 0.00 0.00 0.00 85 1015.1
20260902020034 26 177 0.0 1.6 0.00 0.00 0.00 84 1015.0
20260902014538 26 177 0.0 1.6 0.00 0.00 0.00 83 1014.9
20260902013034 26 177 0.0 0.0 0.00 0.00 0.00 82 1014.9
20260902011532 27 177 0.0 0.0 0.00 0.00 0.00 81 1014.8
20260902010035 27 177 0.0 0.0 0.00 0.00 0.00 80 1014.7
20260902004531 28 177 0.0 1.6 0.00 0.00 0.00 79 1014.6
20260902003030 28 177 0.0 0.0 0.00 0.00 0.00 77 1014.5
20260902001530 29 177 0.0 0.0 0.00 0.00 0.00 74 1014.5
20260902000027 30 177 0.0 0.0 0.00 0.00 0.00 71 1014.6
20260901234527 31 177 0.0 1.6 0.00 0.00 0.00 70 1014.7
20260901233028 31 177 0.0 3.2 0.00 0.00 0.00 66 1014.8